Weather in Paralimni

Cyprus     35°02′20″N   33°58′57″E
temp.,
°C
wind,
m/s
gust,
m/s
humid.,
%
clouds,
%
prec.,
mm/h
press.,
hPa
HPBL,
m
7 may, fri
fri700:00+21sse34745 0.0 101257
03:00+21sse237985 0.0 101150
06:00+20n227657 0.0 101151
09:00+22nne33704 0.0 1013216
12:00+22ene447355 0.0 1014260
15:00+22e4372100 0.0 1013243
18:00+23sw337013 0.0 1013206
21:00+22sw22735 0.0 101428
8 may, sat
sat800:00+21s12745 0.0 101411
03:00+21sse11755 0.0 101311
06:00+21sse22732 0.0 101313
09:00+22sse33685 0.0 1014131
12:00+23s336469 0.0 1015233
15:00+23ssw56635 0.0 1014210
18:00+23sw4465100 0.0 1013121
21:00+22s347094 0.0 101240
9 may, sun
sun900:00+22e1272100 0.0 101211
03:00+22nne227199 0.0 101017
06:00+22nne2268100 0.0 101012
09:00+23ne226218 0.0 101175
12:00+23ese3365100 0.0 1011150
15:00+23se336623 0.0 1010163
18:00+24s34598 0.0 100894
21:00+23wsw336256 0.0 100930
10 may, mon
mon1000:00+23nnw226553 0.0 100914
03:00+23n586683 0.0 1009119
06:00+22nne710800 0.0 1010244
09:00+22ne813580 0.0 1010347
12:00+23ne812510 0.0 1010321
15:00+23ne79525 0.0 1009219
18:00+23ne57500 0.0 100794
21:00+23n34520 0.0 100727
11 may, tue
tue1100:00+22nw46500 0.0 100776
03:00+22nnw69550 0.0 1007167
06:00+21nnw56560 0.0 1007103
09:00+23nne68440 0.0 1008206
12:00+25nne78410 0.0 1008225
15:00+24ne67480 0.0 1007208
18:00+24wsw44510 0.0 1007196
21:00+22sw57690 0.0 100794